Location: Ford County Road and Bridge Department
(37.7686°N, 99.9762°W)
Time: 21:18:20
(UTC+00:00)

N. Korean satellite - Pass Details

Date: 16 April 2020
Orbit: 455 x 504 km, 97.2° (Epoch: 06 June)

Event Time Altitude Azimuth Distance (km) Brightness Sun altitude
Rises 11:20:51 0° 35° (NE) 2,482 11.2 -8.7°
Reaches altitude 10° 11:23:55 10° 67° (ENE) 1,607 10.9 -8.2°
Maximum altitude 11:25:26 12° 93° (E) 1,464 10.2 -7.9°
Drops below altitude 10° 11:26:57 10° 119° (ESE) 1,609 9.8 -7.6°
Sets 11:30:02 0° 150° (SSE) 2,487 10.3 -7.0°
